TimeEST,TemperatureF,Dew PointF,Humidity,Sea Level PressureIn,VisibilityMPH,Wind Direction,Wind SpeedMPH,Gust SpeedMPH,PrecipitationIn,Events,Conditions,WindDirDegrees,DateUTC
12:53 AM,36.0,28.0,73,29.99,10.0,SSW,5.8,-,N/A,,Overcast,210,2013-02-03 05:53:00
1:53 AM,30.9,26.1,82,29.96,10.0,SW,5.8,-,N/A,,Partly Cloudy,220,2013-02-03 06:53:00
2:53 AM,30.0,25.0,82,29.95,10.0,Calm,Calm,-,N/A,,Partly Cloudy,0,2013-02-03 07:53:00
3:53 AM,30.9,27.0,85,29.93,10.0,SSW,3.5,-,N/A,,Overcast,200,2013-02-03 08:53:00
4:53 AM,32.0,27.0,82,29.91,10.0,WSW,4.6,-,N/A,,Overcast,240,2013-02-03 09:53:00
5:53 AM,30.0,26.1,85,29.91,10.0,WSW,3.5,-,N/A,,Overcast,250,2013-02-03 10:53:00
6:53 AM,30.9,26.1,82,29.92,10.0,WSW,3.5,-,N/A,,Clear,250,2013-02-03 11:53:00
7:53 AM,33.1,26.1,75,29.94,10.0,West,3.5,-,N/A,,Overcast,270,2013-02-03 12:53:00
8:53 AM,37.0,27.0,67,29.94,10.0,West,3.5,-,N/A,,Scattered Clouds,260,2013-02-03 13:53:00
9:53 AM,41.0,24.1,51,29.94,10.0,Variable,4.6,-,N/A,,Partly Cloudy,0,2013-02-03 14:53:00
10:53 AM,43.0,21.0,42,29.92,10.0,West,9.2,-,N/A,,Mostly Cloudy,280,2013-02-03 15:53:00
11:53 AM,46.0,23.0,40,29.90,10.0,WSW,8.1,-,N/A,,Scattered Clouds,250,2013-02-03 16:53:00
12:53 PM,46.9,23.0,39,29.86,10.0,WSW,10.4,16.1,N/A,,Overcast,240,2013-02-03 17:53:00
1:53 PM,46.0,23.0,40,29.83,10.0,West,6.9,-,N/A,,Overcast,260,2013-02-03 18:53:00
2:53 PM,46.0,25.0,44,29.83,10.0,NW,12.7,18.4,N/A,,Overcast,310,2013-02-03 19:53:00
3:53 PM,44.1,27.0,51,29.85,10.0,WSW,5.8,-,0.00,,Overcast,240,2013-02-03 20:53:00
4:53 PM,46.0,19.9,35,29.87,10.0,WNW,16.1,21.9,N/A,,Overcast,300,2013-02-03 21:53:00
5:53 PM,42.1,21.0,43,29.91,10.0,WNW,10.4,17.3,N/A,,Mostly Cloudy,290,2013-02-03 22:53:00
6:53 PM,39.9,19.9,45,29.93,10.0,WNW,11.5,-,N/A,,Clear,300,2013-02-03 23:53:00
7:53 PM,39.9,19.9,45,29.96,10.0,Variable,4.6,-,N/A,,Scattered Clouds,0,2013-02-04 00:53:00
8:53 PM,39.0,21.0,49,29.97,10.0,WNW,6.9,-,N/A,,Mostly Cloudy,300,2013-02-04 01:53:00
9:53 PM,39.0,19.0,45,29.97,10.0,NW,10.4,21.9,N/A,,Mostly Cloudy,310,2013-02-04 02:53:00
10:53 PM,37.0,18.0,46,29.99,10.0,NW,11.5,21.9,N/A,,Mostly Cloudy,310,2013-02-04 03:53:00
11:53 PM,36.0,18.0,48,29.99,10.0,WNW,10.4,-,N/A,,Clear,300,2013-02-04 04:53:00